This demonstration page uses our WeatherBlox Daily Observations layout. Learn more.

Left ArrowRight Arrow

Hourly Observations for September 1, 2016

Temp ( °F °C ) Dew Point ( °F °C ) Humidity (%) Winds ( mph kmh ) Pressure ( in mb ) Visibility ( mi km ) Precip ( " mm )
12:51 am 00:51 Mostly Clear 79 26.1 61 16.1 54 54 SE 6 9 29.88 1012 10 16.0934 0 0
1:51 am 01:51 Clear 78 25.6 60 15.6 54 54 E 6 9 29.88 1012 10 16.0934 0 0
2:51 am 02:51 Clear 78 25.6 60 15.6 54 54 SE 6 9 29.87 1012 10 16.0934 0 0
3:51 am 03:51 Clear 77 25 61 16.1 58 58 ESE 3 6 29.87 1011 10 16.0934 0 0
4:51 am 04:51 Clear 77 25 61 16.1 58 58 SSE 5 7 29.89 1012 10 16.0934 0 0
5:51 am 05:51 Clear 77 25 59 15 54 54 SE 7 11 29.9 1013 10 16.0934 0 0
6:51 am 06:51 Sunny 77 25 60 15.6 56 56 SE 8 13 29.92 1013 10 16.0934 0 0
7:51 am 07:51 Mostly Cloudy 79 26.1 61 16.1 54 54 SE 8 13 29.93 1014 10 16.0934 0 0
8:51 am 08:51 Sunny 81 27.2 60 15.6 49 49 SE 7 11 29.94 1014 10 16.0934 0 0
9:51 am 09:51 Mostly Sunny 86 30 60 15.6 42 42 ESE 9 15 29.93 1014 10 16.0934 0 0
10:51 am 10:51 Mostly Sunny 88 31.1 60 15.6 39 39 S 8 13 29.9 1013 10 16.0934 0 0
11:51 am 11:51 Sunny 91 32.8 60 15.6 35 35 undefined N/A 29.87 1011 10 16.0934 0 0
12:51 pm 12:51 Partly Cloudy with Nearby Thunderstorms 84 28.9 63 17.2 49 49 NE 8 13 29.86 1011 10 16.0934 0 0.0254
1:23 pm 13:23 Mostly Cloudy 87 30.6 64 17.8 46 46 E 13 20 29.74 1007 10 16.0934 0 0
1:38 pm 13:38 Partly Cloudy with Nearby Thunderstorms 87 30.6 62 16.7 43 43 E 12 19 29.74 1007 10 16.0934 0 0
1:49 pm 13:49 Partly Cloudy with Thunderstorms 81 27 61 16 51 51 SE 20 31 29.83 1010 10 16.0934 0 0
1:51 pm 13:51 Partly Cloudy with Thunderstorms 80 26.7 59 15 49 49 SE 22 35 29.87 1011 10 16.0934 0 0
2:01 pm 14:01 Partly Cloudy with Thunderstorms 80 26.7 59 15 49 49 SE 16 26 29.83 1010 10 16.0934 0 0
2:15 pm 14:15 Partly Cloudy with Nearby Thunderstorms 79 26.1 61 16.1 54 54 ESE 13 20 29.8 1009 9 14.48406 0 0
2:22 pm 14:22 Mostly Cloudy with Light Rain 78 25.6 64 17.8 62 62 ESE 12 19 29.8 1009 9 14.48406 0 0.0254
2:51 pm 14:51 Partly Cloudy 85 29.4 64 17.8 50 50 E 10 17 29.83 1010 10 16.0934 0 0.0254
3:51 pm 15:51 Sunny 89 31.7 61 16.1 39 39 E 12 19 29.81 1009 10 16.0934 0 0
4:51 pm 16:51 Sunny 86 30 61 16.1 43 43 SE 16 26 29.82 1010 10 16.0934 0 0
5:51 pm 17:51 Sunny 85 29.4 55 12.8 36 36 E 10 17 29.81 1009 10 16.0934 0 0
6:51 pm 18:51 Clear 81 27.2 59 15 47 47 SE 7 11 29.84 1010 10 16.0934 0 0
7:51 pm 19:51 Clear 78 25.6 59 15 52 52 SE 14 22 29.87 1011 10 16.0934 0 0
8:51 pm 20:51 Clear 77 25 59 15 54 54 E 9 15 29.89 1012 10 16.0934 0 0
9:51 pm 21:51 Clear 77 25 58 14.4 52 52 ESE 8 13 29.89 1012 10 16.0934 0 0
10:51 pm 22:51 Clear 74 23.3 61 16.1 64 64 SSE 16 26 29.91 1013 10 16.0934 0 0
11:51 pm 23:51 Clear 71 21.7 60 15.6 68 68 ESE 7 11 29.91 1013 10 16.0934 0 0

Powered by AerisWeather